KC1TLF-15 Weather Reports


time (UTC)temp
C
wind
direction
speed
KPH
gust
KPH
rain 1hr
cm
rain 24hr
cm
rain mn
cm
humidity
%
barometer
mb
20260507061109 11 323 0.0 0.0 0.00 0.00 0.00 97 1014.9
20260507060111 11 322 0.0 0.0 0.00 0.00 0.00 98 1015.0
20260507055110 11 324 0.0 0.0 0.00 0.00 0.00 98 1014.7
20260507054109 11 316 0.0 0.0 0.00 0.00 0.00 98 1015.1
20260507053110 11 326 1.6 1.6 0.00 0.00 0.00 98 1015.4
20260507052110 11 315 1.6 1.6 0.00 0.00 0.00 98 1015.1
20260507051109 12 321 0.0 1.6 0.00 0.00 0.00 98 1015.3
20260507050110 12 310 1.6 3.2 0.00 0.00 0.00 98 1015.4
20260507045110 12 325 0.0 1.6 0.00 0.00 0.00 98 1015.1
20260507044107 12 327 1.6 1.6 0.00 0.00 0.00 98 1015.1
20260507043109 12 318 1.6 1.6 0.00 0.00 0.00 98 1015.0
20260507042109 12 322 0.0 0.0 0.00 0.00 0.00 97 1014.9
20260507041109 13 310 3.2 3.2 0.00 0.00 0.00 97 1015.0
20260507040109 13 321 0.0 1.6 0.00 0.00 0.53 98 1015.1
20260507035110 13 313 1.6 1.6 0.13 0.00 0.53 97 1015.0
20260507034109 13 319 1.6 1.6 0.00 0.00 0.51 97 1015.0
20260507033112 13 0 0.0 0.0 0.00 0.00 0.51 98 1014.5
20260507032111 14 317 0.0 0.0 0.00 0.00 0.51 99 1014.4
20260507031110 14 332 3.2 3.2 0.00 0.00 0.51 99 1014.1
20260507030110 15 321 1.6 1.6 0.00 0.00 0.51 99 1013.9
20260507025109 15 326 0.0 0.0 0.00 0.00 0.51 99 1014.1
20260507024109 15 316 0.0 0.0 0.18 0.00 0.51 99 1014.0
20260507023110 15 345 0.0 1.6 0.00 0.00 0.48 99 1014.4
20260507022109 15 320 0.0 1.6 0.00 0.00 0.48 99 1014.0
20260507021109 15 323 0.0 0.0 0.00 0.00 0.48 99 1013.7
20260507020110 15 326 0.0 0.0 0.00 0.00 0.48 99 1013.6
20260507015110 15 321 0.0 0.0 0.00 0.00 0.48 99 1013.8
20260507014110 15 326 0.0 0.0 0.00 0.00 0.48 99 1013.9
20260507013110 15 331 0.0 0.0 0.00 0.00 0.48 99 1013.9
20260507012109 15 330 0.0 0.0 0.00 0.00 0.48 99 1013.8
20260507011110 15 322 0.0 0.0 0.00 0.00 0.48 99 1013.7
20260507010110 15 325 0.0 0.0 0.00 0.00 0.48 99 1014.1
20260507005110 15 322 0.0 0.0 0.00 0.00 0.48 99 1013.9
20260507004110 15 323 0.0 0.0 0.00 0.00 0.48 99 1013.8
20260507003110 15 350 0.0 1.6 0.00 0.00 0.48 99 1013.7
20260507002110 15 318 0.0 1.6 0.00 0.00 0.48 99 1013.7
20260507001111 15 299 1.6 1.6 0.00 0.00 0.48 99 1013.6
20260507000109 15 328 0.0 0.0 0.00 0.00 0.48 99 1013.7
20260506235111 15 323 0.0 0.0 0.00 0.00 0.48 99 1013.6
20260506234110 15 324 0.0 0.0 0.00 0.00 0.48 99 1013.7
20260506233110 15 347 1.6 1.6 0.00 0.00 0.48 99 1013.4
20260506232108 15 325 0.0 0.0 0.00 0.00 0.48 99 1013.4
20260506231110 15 322 0.0 0.0 0.13 0.00 0.48 99 1013.3
20260506230111 15 314 0.0 0.0 0.48 0.00 0.46 99 1013.6
20260506225110 15 310 0.0 0.0 0.00 0.00 0.38 99 1013.5
20260506224110 15 328 0.0 0.0 0.13 0.00 0.38 99 1013.6
20260506223109 15 323 0.0 0.0 0.18 0.00 0.00 98 1013.6
20260506222109 15 325 0.0 0.0 0.18 0.00 0.33 98 1013.8
20260506221109 15 328 1.6 1.6 0.30 0.00 0.30 98 1014.1
20260506220110 15 316 0.0 0.0 0.30 0.00 0.25 97 1013.8
20260506215110 15 322 0.0 0.0 0.13 0.00 0.20 96 1013.9
20260506214111 15 303 3.2 3.2 0.00 0.00 0.00 96 1014.0
20260506213110 15 341 0.0 0.0 0.00 0.00 0.00 96 1014.1
20260506212110 15 313 0.0 0.0 0.00 0.00 0.00 96 1014.3
20260506211111 15 333 1.6 1.6 0.00 0.00 0.00 96 1014.3
20260506210110 15 326 0.0 0.0 0.00 0.00 0.00 96 1014.2
20260506205116 15 308 0.0 1.6 0.18 0.00 0.00 96 1014.6
20260506204109 15 317 0.0 0.0 0.18 0.00 0.00 96 1014.5
20260506203110 16 325 1.6 1.6 0.00 0.00 0.15 95 1014.6
20260506202109 16 323 0.0 0.0 0.13 0.00 0.15 95 1014.4
20260506201109 16 330 0.0 0.0 0.18 0.00 0.13 94 1014.6
20260506200110 16 319 0.0 0.0 0.00 0.00 0.10 93 1014.6
20260506195109 16 333 0.0 1.6 0.00 0.00 0.10 92 1014.8
20260506194111 17 325 0.0 0.0 0.13 0.00 0.10 93 1014.9
20260506193109 17 331 0.0 0.0 0.00 0.00 0.08 93 1014.7
20260506192110 17 328 0.0 0.0 0.18 0.00 0.08 92 1014.8
20260506191110 17 320 0.0 0.0 0.18 0.00 0.08 91 1014.8
20260506190111 17 329 0.0 1.6 0.18 0.00 0.05 88 1014.6
20260506185109 18 316 0.0 0.0 0.13 0.00 0.03 85 1014.7
20260506184110 18 323 1.6 1.6 0.00 0.00 0.00 79 1015.0
20260506183110 19 314 0.0 1.6 0.00 0.00 0.00 76 1015.2
20260506182109 20 308 1.6 3.2 0.00 0.00 0.00 71 1015.0
20260506181110 21 331 0.0 0.0 0.00 0.00 0.00 65 1015.2
20260506180110 21 331 3.2 3.2 0.00 0.00 0.00 63 1014.9
20260506175111 21 286 3.2 6.4 0.00 0.00 0.00 62 1015.2
20260506174110 22 264 3.2 3.2 0.00 0.00 0.00 58 1015.0
20260506173110 22 250 4.8 6.4 0.00 0.00 0.00 55 1014.8
20260506172109 23 288 1.6 3.2 0.00 0.00 0.00 54 1014.7
20260506171110 23 21 0.0 1.6 0.00 0.00 0.00 54 1015.0
20260506170110 23 45 1.6 3.2 0.00 0.00 0.00 55 1015.1
20260506165110 23 290 6.4 6.4 0.00 0.00 0.00 58 1015.3
20260506164109 22 345 1.6 1.6 0.00 0.00 0.00 58 1015.6
20260506163109 22 291 1.6 3.2 0.00 0.00 0.00 59 1015.3
20260506162111 22 314 3.2 3.2 0.00 0.00 0.00 60 1015.8
20260506161110 22 327 0.0 1.6 0.00 0.00 0.00 60 1015.8
20260506160110 22 323 0.0 0.0 0.00 0.00 0.00 59 1016.2
20260506155109 21 302 4.8 4.8 0.00 0.00 0.00 61 1016.4
20260506154109 21 296 1.6 3.2 0.00 0.00 0.00 62 1016.4
20260506153109 21 355 0.0 0.0 0.00 0.00 0.00 63 1016.4
20260506152110 21 145 3.2 4.8 0.00 0.00 0.00 63 1016.7
20260506151111 21 285 1.6 1.6 0.00 0.00 0.00 63 1017.0
20260506150110 21 276 6.4 11.3 0.00 0.00 0.00 62 1017.1
20260506145110 22 323 1.6 1.6 0.00 0.00 0.00 61 1017.0
20260506144109 21 353 0.0 1.6 0.00 0.00 0.00 63 1017.2
20260506143109 21 297 1.6 3.2 0.00 0.00 0.00 64 1017.2
20260506142111 22 318 0.0 0.0 0.00 0.00 0.00 62 1017.0
20260506141110 22 44 1.6 1.6 0.00 0.00 0.00 62 1016.5
20260506140110 21 293 6.4 11.3 0.00 0.00 0.00 65 1016.8
20260506135110 21 323 1.6 1.6 0.00 0.00 0.00 64 1017.0
20260506134110 21 285 1.6 3.2 0.00 0.00 0.00 65 1017.1
20260506133110 21 300 1.6 1.6 0.00 0.00 0.00 66 1017.2
20260506132109 20 227 0.0 1.6 0.00 0.00 0.00 68 1017.4
20260506131110 19 296 3.2 3.2 0.00 0.00 0.00 71 1017.5
20260506130110 19 315 0.0 0.0 0.00 0.00 0.00 72 1017.5
20260506125111 19 177 1.6 3.2 0.00 0.00 0.00 73 1017.5
20260506124110 19 311 1.6 1.6 0.00 0.00 0.00 72 1017.4
20260506123110 18 314 0.0 0.0 0.00 0.00 0.00 73 1017.2
20260506122110 17 237 1.6 3.2 0.00 0.00 0.00 75 1017.4
20260506121110 17 321 1.6 1.6 0.00 0.00 0.00 76 1017.7
20260506120110 18 344 3.2 4.8 0.00 0.00 0.00 73 1017.4
20260506115111 17 321 0.0 0.0 0.00 0.00 0.00 77 1017.7
20260506114109 16 329 0.0 0.0 0.00 0.00 0.00 80 1017.8
20260506113110 16 285 0.0 0.0 0.00 0.00 0.00 79 1017.8
20260506112110 16 326 0.0 0.0 0.00 0.00 0.00 80 1017.8
20260506111111 16 326 1.6 1.6 0.00 0.00 0.00 80 1018.0
20260506110110 16 12 1.6 1.6 0.00 0.00 0.00 79 1017.7
20260506105108 16 329 0.0 0.0 0.00 0.00 0.00 80 1017.8
20260506104110 16 269 0.0 0.0 0.00 0.00 0.00 81 1017.9
20260506103111 15 304 0.0 1.6 0.00 0.00 0.00 84 1017.9
20260506102109 15 323 0.0 0.0 0.00 0.00 0.00 84 1017.9
20260506101108 15 355 0.0 0.0 0.00 0.00 0.00 84 1017.8
20260506100110 15 320 0.0 0.0 0.00 0.00 0.00 84 1017.7
20260506095110 15 319 0.0 0.0 0.00 0.00 0.00 84 1017.6
20260506094110 15 336 0.0 1.6 0.00 0.00 0.00 83 1017.4
20260506093110 15 311 0.0 0.0 0.00 0.00 0.00 83 1017.6
20260506092110 15 319 0.0 0.0 0.00 0.00 0.00 83 1017.7
20260506091110 15 327 0.0 0.0 0.00 0.00 0.00 83 1017.7
20260506090109 15 324 0.0 0.0 0.00 0.00 0.00 82 1017.6
20260506085109 15 6 0.0 1.6 0.00 0.00 0.00 82 1017.6
20260506084109 15 320 0.0 0.0 0.00 0.00 0.00 81 1017.6
20260506083109 15 327 0.0 0.0 0.00 0.00 0.00 81 1017.8
20260506082111 15 330 0.0 0.0 0.00 0.00 0.00 80 1017.6
20260506081110 15 272 0.0 1.6 0.00 0.00 0.00 79 1017.7
20260506080110 15 298 1.6 3.2 0.00 0.00 0.00 79 1017.7
20260506073109 16 334 0.0 0.0 0.00 0.00 0.00 77 1017.4
20260506072110 16 350 1.6 1.6 0.00 0.00 0.00 76 1017.5
20260506071111 16 322 0.0 1.6 0.00 0.00 0.00 76 1017.3
20260506070110 16 322 0.0 0.0 0.00 0.00 0.00 74 1017.3
20260506062110 17 329 1.6 1.6 0.00 0.00 0.00 71 1017.3